Regional Weather Roundup
Issued by NWS Kansas City/Pleasant Hill, MO

Home | Current Version | Previous Version | Text Only | Print | Product List | Glossary On
Versions: 1 2 3 4 5 6 7 8 9 10 11 12 13 14 15 16 17 18 19 20 21 22 23 24 25 26 27 28 29 30 31 32 33 34 35 36 37 38 39 40 41 42 43 44 45 46 47 48 49 50
261
ASUS43 KEAX 260210
RWREAX

WEATHER ROUNDUP FOR EASTERN KANSAS AND NORTHWEST MISSOURI
NATIONAL WEATHER SERVICE KANSAS CITY/PLEASANT HILL MO
800 PM CST SUN FEB 25 2018

KSZ040-057-103>105-MOZ028-029-037-043-260300-
...KANSAS CITY METROPOLITAN AREA...

CITY           SKY/WX    TMP DP  RH WIND       PRES   REMARKS
K.C. INTL      PTCLDY    38  19  46 SW8       30.08R WCI  32
K.C. DOWNTOWN  CLEAR     40  23  50 CALM      30.09R
LEES SUMMIT    CLEAR     41  27  57 S7        30.10R
OLATHE - IXD   CLEAR     41  25  53 SE6       30.09S
OLATHE - OJC   CLEAR     38  26  62 SE6       30.09R WCI  33
LAWRENCE       CLEAR     31  26  82 CALM      30.09R

$$

MOZ001>008-011>017-020>025-030>033-038>040-044>046-053-054-260300-
...NORTHERN AND CENTRAL MISSOURI...

CITY           SKY/WX    TMP DP  RH WIND       PRES   REMARKS
ST. JOSEPH     CLEAR     32  27  81 CALM      30.09R
MOSBY          CLEAR     34  27  75 CALM      30.09S
WARRENSBURG    CLOUDY    39  30  70 CALM      30.11R
WHITEMAN AFB   MOCLDY   N/A N/A N/A CALM      30.08R
CLINTON        CLOUDY    39  30  70 NE5       30.12R
SEDALIA        PTCLDY    43  29  57 CALM      30.12R
WARSAW         NOT AVBL
CHILLICOTHE      N/A     32  25  75 CALM      30.09S
KIRKSVILLE     PTCLDY    34  27  75 S7        30.09S WCI  28

$$

MOZ041-047>049-056>058-063>065-088>090-097-260300-
...EASTERN AND SOUTHERN MISSOURI...

CITY           SKY/WX    TMP DP  RH WIND       PRES   REMARKS
ST. LOUIS INTL CLEAR     42  27  55 CALM      30.14R
SPIRIT OF STL  CLEAR     38  31  76 CALM      30.13R
COLUMBIA       PTCLDY    44  23  43 E3        30.10S
JEFFERSON CITY CLEAR     39  29  67 CALM      30.12R
ROLLA          CLEAR     39  28  64 E6        30.11R WCI  35
OSAGE BEACH    CLEAR     43  25  49 E3        30.11R
SPRINGFIELD    CLEAR     42  33  70 SE3       30.07R
BRANSON        CLEAR     45  28  53 SE8       30.08R
JOPLIN         CLEAR     43  33  68 VRB6      30.09R
WEST PLAINS    CLOUDY    41  31  67 CALM      30.12R

$$

IAZ060-094-KSZ022-034>040-054-083-096-NEZ052-066-093-260300-
...KANSAS...SOUTHEAST NEBRASKA AND IOWA...

CITY           SKY/WX    TMP DP  RH WIND       PRES   REMARKS
TOPEKA         CLEAR     39  26  59 CALM      30.08R
MANHATTAN      CLEAR     31  20  63 CALM      30.08R
EMPORIA        PTCLDY    39  24  55 NW3       30.07R
CHANUTE        MOCLDY    45  30  55 E6        30.09R
WICHITA        PTCLDY    43  31  62 N7        30.07R
OMAHA          PTCLDY    32  27  81 SE8       30.02S WCI  25
LINCOLN        CLOUDY    38  24  57 CALM      30.04R
FALLS CITY     CLEAR     38  22  52 S8        30.06R WCI  32
LAMONI         CLEAR     37  23  56 SW7       30.06R WCI  32
DES MOINES     CLEAR     36  25  64 W3        30.05S

$$





USA.gov is the U.S. government's official web portal to all federal, state and local government web resources and services.